TimeEST,TemperatureF,Dew PointF,Humidity,Sea Level PressureIn,VisibilityMPH,Wind Direction,Wind SpeedMPH,Gust SpeedMPH,PrecipitationIn,Events,Conditions,WindDirDegrees,DateUTC
12:15 AM,32.4,30.7,94,30.07,10.0,NNE,6.9,-,N/A,,Overcast,20,2013-02-16 05:15:00
12:35 AM,32.2,30.4,93,30.07,10.0,NNE,4.6,-,N/A,,Overcast,20,2013-02-16 05:35:00
12:55 AM,32.0,30.0,92,30.07,10.0,NNE,5.8,-,N/A,,Overcast,30,2013-02-16 05:55:00
1:15 AM,32.0,29.1,89,30.07,10.0,North,4.6,-,N/A,,Overcast,360,2013-02-16 06:15:00
1:35 AM,31.8,27.7,85,30.06,10.0,North,4.6,-,N/A,,Overcast,350,2013-02-16 06:35:00
1:55 AM,31.6,27.9,86,30.06,10.0,NNW,6.9,-,N/A,,Overcast,340,2013-02-16 06:55:00
2:15 AM,31.3,27.5,86,30.06,10.0,Calm,Calm,-,N/A,,Overcast,0,2013-02-16 07:15:00
2:35 AM,31.1,27.1,85,30.06,10.0,NNW,5.8,-,N/A,,Overcast,330,2013-02-16 07:35:00
2:55 AM,30.7,26.4,84,30.05,10.0,NNW,4.6,-,N/A,,Overcast,340,2013-02-16 07:55:00
3:15 AM,30.2,25.7,83,30.04,10.0,NNW,9.2,-,N/A,,Overcast,340,2013-02-16 08:15:00
3:35 AM,29.7,25.5,85,30.04,10.0,NNW,8.1,-,N/A,,Overcast,330,2013-02-16 08:35:00
3:55 AM,29.3,24.8,83,30.04,10.0,North,5.8,-,N/A,,Overcast,350,2013-02-16 08:55:00
4:15 AM,29.1,22.6,77,30.03,10.0,North,3.5,-,N/A,,Overcast,350,2013-02-16 09:15:00
4:35 AM,28.8,22.6,78,30.03,10.0,NNE,6.9,-,N/A,,Overcast,30,2013-02-16 09:35:00
4:55 AM,28.4,22.8,80,30.03,10.0,NNE,4.6,-,N/A,,Overcast,20,2013-02-16 09:55:00
5:15 AM,27.7,22.1,80,30.03,10.0,NNE,4.6,-,N/A,,Overcast,20,2013-02-16 10:15:00
5:35 AM,27.5,22.1,80,30.03,10.0,NNE,5.8,-,N/A,,Overcast,30,2013-02-16 10:35:00
6:15 AM,27.3,21.9,80,30.03,10.0,NNW,4.6,-,N/A,,Overcast,340,2013-02-16 11:15:00
6:35 AM,27.1,22.8,84,30.03,10.0,NNW,4.6,-,N/A,,Overcast,330,2013-02-16 11:35:00
7:15 AM,26.6,22.6,85,30.03,10.0,NNW,4.6,-,N/A,,Overcast,340,2013-02-16 12:15:00
7:35 AM,26.4,22.3,84,30.03,10.0,Calm,Calm,-,N/A,,Overcast,0,2013-02-16 12:35:00
7:55 AM,26.4,22.1,84,30.04,10.0,NNW,3.5,-,N/A,,Overcast,330,2013-02-16 12:55:00
8:15 AM,26.4,22.1,84,30.04,10.0,NNW,3.5,-,N/A,,Overcast,330,2013-02-16 13:15:00
8:35 AM,26.6,21.7,82,30.04,10.0,North,3.5,-,N/A,,Overcast,350,2013-02-16 13:35:00
8:55 AM,26.6,21.4,81,30.05,10.0,NNW,5.8,-,N/A,,Overcast,330,2013-02-16 13:55:00
9:15 AM,26.6,21.6,81,30.04,10.0,NNW,4.6,-,N/A,,Overcast,340,2013-02-16 14:15:00
9:35 AM,28.0,22.6,80,30.03,10.0,NNE,3.5,-,N/A,,Mostly Cloudy,20,2013-02-16 14:35:00
9:55 AM,28.2,22.1,78,30.03,10.0,West,3.5,-,N/A,,Mostly Cloudy,280,2013-02-16 14:55:00
10:15 AM,28.9,21.9,75,30.03,10.0,North,3.5,-,N/A,,Mostly Cloudy,360,2013-02-16 15:15:00
10:35 AM,28.6,19.2,68,30.03,10.0,NW,6.9,-,N/A,,Mostly Cloudy,320,2013-02-16 15:35:00
1:15 PM,33.3,16.5,50,29.98,10.0,NW,6.9,-,N/A,,Mostly Cloudy,310,2013-02-16 18:15:00
1:35 PM,31.8,14.5,49,29.98,10.0,NW,6.9,-,N/A,,Overcast,310,2013-02-16 18:35:00
1:55 PM,31.8,13.5,47,29.97,10.0,NNW,8.1,-,N/A,,Overcast,340,2013-02-16 18:55:00
2:15 PM,31.8,14.4,49,29.97,10.0,WNW,10.4,16.1,N/A,,Overcast,290,2013-02-16 19:15:00
2:35 PM,31.3,16.7,55,29.97,10.0,WNW,6.9,-,N/A,,Overcast,300,2013-02-16 19:35:00
2:55 PM,31.6,15.3,51,29.97,10.0,NNW,8.1,-,N/A,,Overcast,330,2013-02-16 19:55:00
3:15 PM,32.0,16.3,52,29.97,10.0,NW,6.9,-,N/A,,Overcast,310,2013-02-16 20:15:00
3:35 PM,31.1,14.0,49,29.97,10.0,NW,9.2,-,N/A,,Scattered Clouds,320,2013-02-16 20:35:00
3:55 PM,32.7,13.5,45,29.97,10.0,NW,8.1,17.3,N/A,,Mostly Cloudy,310,2013-02-16 20:55:00
4:15 PM,32.2,14.7,49,29.97,10.0,WNW,8.1,-,N/A,,Overcast,300,2013-02-16 21:15:00
4:35 PM,30.9,14.4,50,29.97,10.0,WNW,4.6,-,N/A,,Overcast,300,2013-02-16 21:35:00
4:55 PM,30.6,16.9,57,29.97,10.0,WSW,8.1,-,N/A,,Scattered Clouds,250,2013-02-16 21:55:00
5:15 PM,30.2,17.6,60,29.97,10.0,West,9.2,-,N/A,,Scattered Clouds,260,2013-02-16 22:15:00
5:35 PM,30.2,17.4,59,29.98,10.0,WNW,8.1,-,N/A,,Mostly Cloudy,290,2013-02-16 22:35:00
5:55 PM,27.7,22.1,80,29.99,2.0,WNW,5.8,-,N/A,Snow,Light Snow,300,2013-02-16 22:55:00
6:15 PM,27.3,22.5,82,29.99,1.0,WNW,4.6,-,N/A,Snow,Light Snow,300,2013-02-16 23:15:00
6:35 PM,27.1,20.8,77,29.99,10.0,WNW,4.6,-,N/A,,Overcast,290,2013-02-16 23:35:00
6:55 PM,26.6,20.3,77,30.00,10.0,Calm,Calm,-,N/A,,Mostly Cloudy,0,2013-02-16 23:55:00
7:15 PM,26.4,20.3,78,30.00,10.0,Calm,Calm,-,N/A,,Clear,0,2013-02-17 00:15:00
7:35 PM,25.9,20.5,80,30.00,10.0,Calm,Calm,-,N/A,,Mostly Cloudy,0,2013-02-17 00:35:00
7:55 PM,26.4,21.0,80,30.00,10.0,NW,3.5,-,N/A,,Mostly Cloudy,310,2013-02-17 00:55:00
8:15 PM,26.6,21.2,80,30.00,10.0,West,3.5,-,N/A,,Overcast,280,2013-02-17 01:15:00
8:35 PM,26.2,20.8,80,30.00,10.0,WNW,5.8,-,N/A,,Mostly Cloudy,290,2013-02-17 01:35:00
8:55 PM,26.1,18.3,73,30.01,10.0,NW,5.8,-,N/A,,Scattered Clouds,310,2013-02-17 01:55:00
9:15 PM,25.7,16.2,67,30.02,10.0,NW,5.8,-,N/A,,Scattered Clouds,320,2013-02-17 02:15:00
9:35 PM,25.5,15.4,66,30.02,10.0,NNW,8.1,-,N/A,,Mostly Cloudy,340,2013-02-17 02:35:00
9:55 PM,25.2,12.9,60,30.03,10.0,NNW,5.8,-,N/A,,Scattered Clouds,330,2013-02-17 02:55:00
10:15 PM,24.8,12.9,61,30.03,10.0,NNW,5.8,-,N/A,,Mostly Cloudy,330,2013-02-17 03:15:00
10:35 PM,24.4,10.6,56,30.03,10.0,NW,9.2,17.3,N/A,,Mostly Cloudy,310,2013-02-17 03:35:00
10:55 PM,24.3,9.9,54,30.04,10.0,NW,9.2,17.3,N/A,,Mostly Cloudy,320,2013-02-17 03:55:00
11:15 PM,23.7,10.8,58,30.04,10.0,NW,6.9,-,N/A,,Overcast,320,2013-02-17 04:15:00
11:35 PM,23.4,11.7,61,30.05,10.0,NNW,6.9,-,N/A,,Overcast,340,2013-02-17 04:35:00
11:55 PM,23.0,12.4,64,30.05,10.0,WNW,5.8,-,N/A,,Overcast,300,2013-02-17 04:55:00